Gamaliel, AR

9:53 AM CST on February 07, 2016 (GMT -0600)
Baxter County Regional

Weather History for KBPK - February, 2013

Change the Weather History Date:

Sunday, February 10, 2013

  Actual Average (KHRO) Record (KHRO)
Temperature  
Mean Temperature 52 °F 39 °F  
Max Temperature 66 °F 50 °F 79 °F (1922)
Min Temperature 37 °F 29 °F -17 °F (1929)
Degree Days  
Heating Degree Days 14 26  
Month to date heating degree days 265  
Since 1 July heating degree days 2751  
Cooling Degree Days 0 0  
Month to date cooling degree days 0  
Year to date cooling degree days 0  
Growing Degree Days 2 (Base 50)    
Moisture  
Dew Point 37 °F    
Average Humidity 65    
Maximum Humidity 100    
Minimum Humidity 22    
Precipitation  
Precipitation 0.02 in 0.09 in 1.91 in (1966)
Month to date precipitation 0.89  
Year to date precipitation 3.45  
Snow  
Snow 0.00 in 0.10 in 3.50 in (1986)
Month to date snowfall 1.4  
Since 1 July snowfall 7.4  
Snow Depth -    
Sea Level Pressure  
Sea Level Pressure 29.78 in    
Wind  
Wind Speed 8 mph (South)    
Max Wind Speed 15 mph    
Max Gust Speed 28 mph    
Visibility 8 miles    
Events Rain , Thunderstorm    
T = Trace of Precipitation, MM = Missing Value Source: NWS Daily Summary

Daily Weather History Graph

Daily Weather History Graph

Search for Another Location

Airport or City:

Trip Planner

Search our weather history database for the weather conditions in past years. The results will help you decide how hot, cold, wet, or windy it might be!

Date:

Astronomy

Feb. 10, 2013 Rise Set
Actual Time 7:02 AM CST 5:46 PM CST
Civil Twilight 6:36 AM CST 6:12 PM CST
Nautical Twilight 6:05 AM CST 6:42 PM CST
Astronomical Twilight 5:35 AM CST 7:13 PM CST
Moon 6:55 AM CST (2/10) 6:34 PM CST (2/10)
Length of Visible Light 11h 36m
Length of Day
10h 43m
New Moon, 0% of the Moon is Illuminated
Feb 10
New Moon
Feb 17
First Quarter
Feb 25
Full
Mar 4
Last Quarter
Mar 11
New

Hourly Weather History & Observations

Time (CST) Temp. Windchill Dew Point Humidity Pressure Visibility Wind Dir Wind Speed Gust Speed Precip Events Conditions
12:43 AM 37.4 °F 31.4 °F 35.6 °F 93% 29.93 in 5.0 mi SE 8.1 mph - 0.01 in   Overcast
12:53 AM 37.9 °F 32.7 °F 36.0 °F 93% 29.95 in 5.0 mi SE 6.9 mph - 0.01 in   Overcast
1:53 AM 39.0 °F 34.8 °F 37.0 °F 93% 29.90 in 5.0 mi East 5.8 mph - N/A   Overcast
2:53 AM 39.9 °F 35.1 °F 37.0 °F 89% 29.84 in 6.0 mi ESE 6.9 mph - N/A   Overcast
3:26 AM 41.0 °F 35.8 °F 37.4 °F 87% 29.80 in 6.0 mi ESE 8.1 mph - N/A   Overcast
3:53 AM 42.1 °F 37.1 °F 39.0 °F 89% 29.78 in 5.0 mi SE 8.1 mph - N/A   Overcast
4:53 AM 44.1 °F 40.8 °F 41.0 °F 89% 29.78 in 5.0 mi SE 5.8 mph - N/A   Overcast
5:49 AM 42.8 °F 40.1 °F 41.0 °F 93% 29.76 in 4.0 mi East 4.6 mph - 0.00 in Rain , Thunderstorm Light Rain
5:53 AM 43.0 °F 40.3 °F 41.0 °F 93% 29.77 in 4.0 mi ENE 4.6 mph - 0.01 in Rain , Thunderstorm Light Rain
9:01 AM - - - N/A% - - North - - N/A   Unknown
9:36 AM 48.2 °F - 48.2 °F 100% 29.72 in 5.0 mi SE 4.6 mph - N/A   Overcast
9:53 AM 50.0 °F - 48.0 °F 93% 29.72 in 6.0 mi SE 5.8 mph - N/A   Overcast
10:46 AM 55.4 °F - 51.8 °F 88% 29.71 in 10.0 mi South 10.4 mph - N/A   Scattered Clouds
10:53 AM 55.0 °F - 52.0 °F 89% 29.70 in 10.0 mi South 12.7 mph - N/A   Partly Cloudy
11:53 AM 60.1 °F - 54.0 °F 80% 29.66 in 10.0 mi South 9.2 mph 18.4 mph N/A   Scattered Clouds
12:02 PM 60.8 °F - 53.6 °F 77% 29.65 in 10.0 mi South 9.2 mph 17.3 mph N/A   Mostly Cloudy
12:26 PM 64.4 °F - 53.6 °F 68% 29.64 in 10.0 mi SW 11.5 mph 23.0 mph N/A   Scattered Clouds
12:53 PM 64.9 °F - 50.0 °F 58% 29.64 in 10.0 mi SW 15.0 mph 20.7 mph N/A   Mostly Cloudy
1:53 PM 66.0 °F - 37.9 °F 36% 29.64 in 10.0 mi WSW 13.8 mph 24.2 mph N/A   Clear
2:53 PM 66.0 °F - 26.1 °F 22% 29.66 in 10.0 mi SW 11.5 mph 26.5 mph N/A   Clear
3:53 PM 64.9 °F - 25.0 °F 22% 29.69 in 10.0 mi West 9.2 mph 19.6 mph N/A   Clear
4:53 PM 63.0 °F - 25.0 °F 24% 29.72 in 10.0 mi WNW 6.9 mph - N/A   Clear
5:53 PM 57.9 °F - 23.0 °F 26% 29.76 in 10.0 mi Variable 4.6 mph - N/A   Clear
6:53 PM 55.0 °F - 25.0 °F 31% 29.80 in 10.0 mi Variable 3.5 mph - N/A   Clear
7:53 PM 55.0 °F - 25.0 °F 31% 29.83 in 10.0 mi West 10.4 mph 17.3 mph N/A   Clear
8:53 PM 53.1 °F - 26.1 °F 35% 29.86 in 10.0 mi WSW 5.8 mph - N/A   Clear
9:53 PM 52.0 °F - 27.0 °F 38% 29.90 in 10.0 mi West 8.1 mph - N/A   Clear
10:53 PM 48.9 °F - 27.0 °F 43% 29.95 in 10.0 mi WNW 9.2 mph 27.6 mph N/A   Clear
11:53 PM 45.0 °F 40.6 °F 25.0 °F 46% 29.99 in 10.0 mi WNW 8.1 mph 21.9 mph N/A   Clear